Portada
METAR-TAF:

METAR-TAF

Aeroports :

Grafton, Austràlia

latitud: 29-45-36S, longitud: 153-01-48E, altitud: 34 m

Observació

L'informe es va fer fa 19 minuts, a les 21:23 UTC
Vent calma
Temperatura 11°C
Humitat 100%
Pressió 1017 hPa
Visibilitat 10 km o més
Núvols disperses a una alçada de 7700 ft
Cel ennuvolat a una alçada de 8900 ft
Cel cobert a una alçada de 11000 ft

METAR: YGFN 252123Z AUTO 00000KT 9999 // SCT077 BKN089 OVC110 11/11 Q1017

Hora: 07:42 (21:42 UTC)


TAF: manca

Observacions i pronòstics meteorològics de més de 4000 aeroports (METAR i TAF).

Les estacions disponibles són els punts grocs i vermells al mapa.

Posi el ratolí al punt desitjat per veure el nom de l'estació.

Feu clic per veure les observacions i els pronòstics meteorològics.

Per canviar el mapa: feu clic els botons verds amb una creu de color negre per apropar; al botó verd amb un guió per allunyar la imatge; o en les fletxes verdes per a mapes adjacents.


METAR-TAF: